星链-5589 (STARLINK-5589 )

导读 | 星芒AI

STARLINK-5589 是 SpaceX Starlink 卫星互联网项目中的一颗低轨通信卫星。该卫星属于 Starlink 群体部署计划的一部分,旨在为全球用户提供高速互联网服务。它运行在约 550 公里的近地轨道上,配备先进通信设备,支持宽带数据传输。STARLINK-5589 于 2021 年发射,是 SpaceX 推动全球网络覆盖、提升偏远地区上网能力的重要组成部分。

基本信息
目录编号:
57334
目录名称:
STARLINK-5589
国际标识:
2023-099G
轨道中心:
EARTH
卫星名称:
星链-5589
卫星全名:
星链-5589 (STARLINK-5589 )
卫星状态:
在轨 (已飞行842 天)
发射日期:
2023-07-16 UTC
国别 :
美国 (US)
星等 :
--
轨道信息
数据来源 国际轨道数据
星历时间: 2025-11-04T08:56:58+0800
15小时前
查看轨道信息
半长轴: 6937.208km
偏心率: 0.0000926
轨道倾角: 43.001°
近地点辐角 265.574°
升交点赤经 211.880°
平近点角 94.499°
近地点: 558.43km
远地点: 559.716km
周期: 95.838分钟
每日圈数: 15.025388
详细信息
固有亮度:
5
最大亮度:
2.5
卫星平台:
Starlink v1.5
覆盖范围:
全球
运营商:
太空探索技术公司
运营商所在国:
美国
制造商(研发单位):
太空探索技术公司
制造商所在国:
美国
使用方式:
暂无
卫星简介
星链(Starlink)计划是由太空探索技术公司(SpaceX)提出的一个巨型低轨卫星互联网星座项目,计划在2019年至2024年间在太空搭建由约1.2万颗卫星组成的“星链”网络,其中1584颗将部署在地球上空550千米处的近地轨道,并从2020年开始工作。该卫星仍在工作。
2D轨道图
3D轨道图
轨道高度分析图
轨道倾角分析图
轨道综合分析图
查看轨道综合分析图